STARLINK-34908, 65329

Orbit data source: Space-Track

STARLINK-34908, 65329 is a payload satellite owned by SpaceX/Seattle (US) in LEO that was launched on Wed, 27 Aug 2025 UTC via an FALCON 9 launch vehicle from the Air Force Eastern Test Range (AFETR). Payload-class satellites include a variety of spacecraft equipped with specific instruments for various scientific and technological missions. These include communications satellites like Starlink; space stations such as the ISS; scientific satellites like the Hubble; Earth observation satellites from companies like Planet Labs, Umbra, and HawkEye 360; GPS; miniature CubeSats for education and research; and military/defense satellites.

Loading next visibility...
Identifier
65329, 2025-189G
Orbit
LEO
Country
Flag of USUS
Related business
Manufacturer
SpaceX/Seattle
Mission
Operational Commercial Communications
Bus & Motor
STARLINK V2MO, Unknown motor
Mass
575 kg wet, ~530 kg dry
Launch date (UTC)
2025-08-27 (10 months ago)
Launch vehicle
FALCON 9
Launch site
Air Force Eastern Test Range (AFETR)
Object type
Payload
Rocket body
Debris
Shape & HBR
Box + 2 Pan, 17.7 m
Radar Cross Section
36.964 m², Large (>1 m²)

Expand to show TLE details & history
Last TLE update: 17 hours ago

TLE from 17 hours ago
0 STARLINK-34908
1 65329U 25189G   26171.14738756  .00022257  00000-0  76079-3 0  9998
2 65329  53.1577  90.8279 0001097  92.7593 267.3533 15.30223739 46792
Epoch: 2026-06-20T03:32Z
TLE epoch observation values (Epoch: 2026-06-20T03:32:14.285Z)
Latitude
-0.00003°
Longitude
129.40217°
Altitude
476.078 km
Speed
7.629 km/s
True Right ascension
06h 03m 18s
True Declination
0° 00' 00"
Sunlit
Object was in daylight at epoch
Visualization orbit readout
Latitude
Unknown
Longitude
Unknown
Altitude
Unknown
Speed
Unknown
Apparent Right ascension
Unknown
Apparent Declination
Unknown
Sunlit
N/A
Visualization observer readout
Local Sidereal Time
07:16:02
Azimuth
Unknown
Elevation
Unknown
Doppler factor
Unknown
Orbital elements
Apogee altitude
476.153 km
Perigee altitude
474.649 km
Semi-major axis
6,853.538 km
Eccentricity
0.00011
Inclination
53.1577°
RAAN
90.8279°
Arg. of periapsis
92.7593°
True anomaly
267.34074°
Mean anomaly
267.3533°
Eccentric anomaly
267.34702°
Mean motion
3.82535 °/min
Orbital period
94.11 mins
BSTAR
0.00076079
Loading maneuver chart data...
Computing Atmospheric mass density...
Loading historical data...
Loading historical data...
Loading historical data...
Loading historical data...
Loading historical data...
Loading historical data...
Loading historical data...

Documentation

Showing up to 5 results
|